This demonstration page uses our WeatherBlox Daily Observations layout. Learn more.

39.92423, -83.80882

Hourly Observations for December 1, 2018

Temp ( °F °C ) Dew Point ( °F °C ) Humidity (%) Winds ( mph kmh ) Pressure ( in mb ) Visibility ( mi km ) Precip ( " mm )
12:56 am 00:56 Cloudy with Mist and Fog 39 3.9 39 3.9 100 100 E 6 9 30.08 1019 0.75 1.207005 0 0.0254
1:05 am 01:05 Cloudy with Fog 39 4 39 4 100 100 E 8 13 30.09 1019 0.5 0.80467 0 0
1:56 am 01:56 Cloudy with Light Rain 38 3.3 38 3.3 100 100 E 10 17 30.04 1017 0.5 0.80467 0 0.0254
2:11 am 02:11 Cloudy with Light Rain 37 3 37 3 100 100 E 12 19 30.03 1017 1 1.60934 0 0.0254
2:56 am 02:56 Cloudy with Fog 39 3.9 39 3.9 100 100 E 12 19 30.02 1017 0.5 0.80467 0 0.0254
3:33 am 03:33 Cloudy with Mist and Fog 39 4 39 4 100 100 E 14 22 30 1016 0.75 1.207005 0 0.0254
3:42 am 03:42 Cloudy with Mist and Fog 39 4 39 4 100 100 E 14 22 30 1016 1 1.60934 0 0.0254
3:49 am 03:49 Cloudy with Mist and Fog 39 4 39 4 100 100 E 12 19 30 1016 1.5 2.41401 0 0.0254
3:56 am 03:56 Cloudy with Mist and Fog 39 3.9 39 3.9 100 100 E 12 19 29.98 1015 1.75 2.816345 0 0.0254
4:03 am 04:03 Cloudy with Mist and Fog 39 4 39 4 100 100 E 13 20 30 1016 2 3.21868 0 0
4:37 am 04:37 Cloudy with Mist and Fog 39 4 39 4 100 100 E 14 22 29.97 1015 2.5 4.02335 0 0
4:48 am 04:48 Cloudy with Mist and Fog 39 4 39 4 100 100 E 15 24 29.97 1015 3 4.82802 0 0
4:56 am 04:56 Cloudy with Mist and Fog 39 3.9 39 3.9 100 100 E 14 22 29.96 1015 3 4.82802 0 0
5:04 am 05:04 Cloudy with Mist and Fog 39 4 39 4 100 100 E 17 28 29.97 1015 2.5 4.02335 0 0
5:16 am 05:16 Cloudy with Mist and Fog 39 4 39 4 100 100 E 14 22 29.97 1015 1.5 2.41401 0 0
5:25 am 05:25 Cloudy with Mist and Fog 39 4 39 4 100 100 E 15 24 29.97 1015 1.25 2.011675 0 0
5:56 am 05:56 Cloudy with Mist and Fog 39 3.9 39 3.9 100 100 E 16 26 29.94 1014 1.75 2.816345 0 0
6:08 am 06:08 Cloudy with Mist and Fog 39 4 39 4 100 100 E 15 24 29.94 1014 2 3.21868 0 0
6:56 am 06:56 Cloudy with Mist and Fog 40 4.4 40 4.4 100 100 E 17 28 29.91 1013 2.5 4.02335 0 0
7:53 am 07:53 Cloudy with Light Rain 39 4 39 4 100 100 E 13 20 29.91 1013 1.5 2.41401 0.02 0.508
7:56 am 07:56 Partly Cloudy with Light Rain 40 4.4 40 4.4 100 100 undefined N/A N/A 1.5 2.41401 0.02 0.508
8:03 am 08:03 Partly Cloudy with Rain 39 4 39 4 100 100 E 14 22 29.91 1013 N/A 0 0
8:14 am 08:14 Partly Cloudy with Rain 39 4 39 4 100 100 E 14 22 29.91 1013 1.25 2.011675 0 0
8:28 am 08:28 Partly Cloudy with Light Rain 39 4 39 4 100 100 ESE 10 17 29.91 1013 1 1.60934 0 0
8:36 am 08:36 Cloudy with Light Rain 41 5 41 5 100 100 ESE 12 19 29.91 1013 1 1.60934 0 0
8:52 am 08:52 Cloudy with Light Rain 41 5 41 5 100 100 ESE 13 20 29.91 1013 1.25 2.011675 0 0
8:56 am 08:56 Cloudy with Light Rain 41 5 41 5 100 100 ESE 15 24 29.9 1013 1.5 2.41401 0 0
9:18 am 09:18 Cloudy with Light Rain 41 5 41 5 100 100 ESE 18 30 29.88 1012 2 3.21868 0.11 2.794
9:39 am 09:39 Cloudy with Light Rain 41 5 41 5 100 100 ESE 15 24 29.88 1012 3 4.82802 0.17 4.318
9:56 am 09:56 Cloudy with Light Rain 41 5 41 5 100 100 ESE 13 20 29.88 1012 2.5 4.02335 0.21 5.334
10:52 am 10:52 Cloudy with Light Rain 43 6 43 6 100 100 E 15 24 29.83 1010 3 4.82802 0.14 3.556
10:56 am 10:56 Cloudy with Light Rain 42 5.6 42 5.6 100 100 E 13 20 29.82 1010 3 4.82802 0.14 3.556
11:56 am 11:56 Cloudy with Light Rain 43 6.1 43 6.1 100 100 ESE 14 22 29.79 1009 3 4.82802 0.26 6.604
12:03 pm 12:03 Cloudy with Light Rain 43 6 43 6 100 100 ESE 12 19 29.8 1009 1.75 2.816345 0.04 1.016
12:13 pm 12:13 Cloudy with Light Rain 43 6 43 6 100 100 ESE 12 19 29.8 1009 2 3.21868 0.1 2.54
12:24 pm 12:24 Cloudy with Rain 43 6 43 6 100 100 ESE 12 19 29.77 1008 5 8.0467 0.12 3.048
12:56 pm 12:56 Cloudy with Rain 43 6.1 43 6.1 100 100 ESE 12 19 29.76 1008 6 9.65604 0.17 4.318
1:56 pm 13:56 Cloudy with Light Rain 44 6.7 44 6.7 100 100 ESE 14 22 29.73 1007 10 16.0934 0.05 1.27
2:56 pm 14:56 Cloudy 45 7.2 45 7.2 100 100 ESE 15 24 29.69 1006 9 14.48406 0.01 0.254
3:56 pm 15:56 Cloudy with Light Rain 46 7.8 46 7.8 100 100 SE 16 26 29.64 1004 10 16.0934 0.01 0.254
4:56 pm 16:56 Cloudy 49 9.4 49 9.4 100 100 SW 18 30 29.65 1004 10 16.0934 0.02 0.508
5:05 pm 17:05 Cloudy 48 9 48 9 100 100 WSW 10 17 29.65 1004 10 16.0934 0 0
5:19 pm 17:19 Cloudy 48 9 48 9 100 100 S 6 9 29.62 1003 10 16.0934 0 0
5:56 pm 17:56 Cloudy 50 10 50 10 100 100 SE 9 15 29.63 1003 10 16.0934 0 0
6:26 pm 18:26 Cloudy 50 10 50 10 100 100 SSE 10 17 29.62 1003 10 16.0934 0 0
6:56 pm 18:56 Cloudy with Rain 51 10.6 51 10.6 100 100 SE 22 35 29.58 1002 10 16.0934 0.03 0.762
7:20 pm 19:20 Cloudy with Light Rain 52 11 52 11 100 100 SE 21 33 29.56 1001 10 16.0934 0.03 0.762
7:27 pm 19:27 Mostly Cloudy with Light Rain 52 11 52 11 100 100 SE 18 30 29.56 1001 10 16.0934 0.03 0.762
7:31 pm 19:31 Mostly Cloudy with Light Rain 52 11 52 11 100 100 SE 17 28 29.56 1001 10 16.0934 0.03 0.762
7:38 pm 19:38 Mostly Cloudy with Light Rain 52 11 52 11 100 100 SE 16 26 29.56 1001 10 16.0934 0.03 0.762
7:56 pm 19:56 Cloudy 51 10.6 50 10 96 96 SSE 18 30 29.57 1001 10 16.0934 0.03 0.762
8:35 pm 20:35 Cloudy with Light Rain 52 11 52 11 100 100 SE 18 30 29.56 1001 10 16.0934 0.01 0.254
8:56 pm 20:56 Mostly Cloudy with Light Rain 53 11.7 52 11.1 96 96 SSE 17 28 29.54 1001 10 16.0934 0.02 0.508
9:25 pm 21:25 Partly Cloudy 54 12 52 11 94 94 SSE 13 20 29.56 1001 10 16.0934 0 0.0254
9:32 pm 21:32 Mostly Cloudy 54 12 52 11 94 94 SSE 14 22 29.56 1001 10 16.0934 0 0.0254
9:43 pm 21:43 Mostly Cloudy 54 12 52 11 94 94 SSE 21 33 29.53 1000 10 16.0934 0 0.0254
9:56 pm 21:56 Cloudy 52 11.1 51 10.6 97 97 SSE 15 24 29.53 1000 10 16.0934 0 0.0254
11:56 pm 23:56 Cloudy 53 11.7 53 11.7 100 100 S 10 17 29.52 1000 10 16.0934 0.01 0.254

Powered by AerisWeather